Location: Alphen
(52.1351°N, 4.6549°E)
Time: 01:35:35
(UTC+00:00)

NOSS 3-2 (A) - Pass Details

Date: 27 January 2021
Orbit: 783 x 1425 km, 63.4° (Epoch: 25 February)

Event Time Altitude Azimuth Distance (km) Brightness Sun altitude
Exits shadow 05:00:35 11° 202° (SSW) 2,428 5.4 -22.6°
Maximum altitude 05:06:01 56° 125° (SE) 1,089 4.0 -21.8°
Drops below altitude 10° 05:12:26 10° 50° (NE) 2,848 6.5 -20.8°
Sets 05:15:18 0° 46° (NE) 3,908 7.3 -20.3°
